Flag for Germany Weather past 2 weeks in Chemnitz, Saxony, Germany

Now
59 °F

Sunny.


Feels Like: 59 °F
Forecast: 43 / 69 °F
Wind: 2 mph from Southeast

Location: Altenburg Nobitz

Current Time: Aug 20, 2014 at 11:00:27 PM

Latest Report: Aug 20, 2014 at 7:50 PM


Visibility: 10 mi

Pressure: 29.98 "Hg

Humidity: 68%

Dew point: 48 °F

Location of ChemnitzLocation

Historic Weather in Chemnitz — Graph

°F

Chemnitz temperature yesterday

Maximum temperature yesterday: 70 °F (at 2:50 PM)
Minimum temperature yesterday: 57 °F (at 8:20 AM)
Average temperature yesterday: 65 °F

Past Weeks' High & Low Weather Summary

 TemperatureHumidityPressure
High86 °F (Aug 10, 3:50 PM)88% (Aug 15, 3:50 PM)30.09 "Hg (Aug 15, 3:50 PM)
Low54 °F (Aug 20, 8:20 AM)38% (Aug 11, 5:20 PM)29.65 "Hg (Aug 13, 4:20 PM)
Average68 °F61%29.90 "Hg
* Reported Aug 5 7:20 PM — Aug 20 7:50 PM, Chemnitz, Weather by CustomWeather, © 2014

Note: Actual official high and low records may vary slightly from our data, if they occured in-between our weather recording intervals... More about our weather records

Advertising

Chemnitz weather history for previous 24 hours

 ConditionsComfort  
Time TempWeatherWind HumidityBarometerVisibility
7:50 PM
Aug 20
59 °FSunny.2 mph68%29.98 "Hg10 mi
7:20 PM61 °FPassing clouds.3 mph55%29.98 "HgN/A
6:50 PM63 °FPassing clouds.5 mph49%29.98 "HgN/A
6:20 PM63 °FPassing clouds.5 mph52%29.98 "HgN/A
5:50 PM63 °FPassing clouds.6 mph52%30.01 "HgN/A
5:20 PM63 °FSunny.7 mph49%30.01 "Hg10 mi
4:50 PM63 °FSunny.8 mph49%30.01 "Hg10 mi
4:20 PM64 °FPassing clouds.10 mph43%30.01 "HgN/A
3:50 PM64 °FPassing clouds.10 mph46%30.01 "HgN/A
3:20 PM64 °FPassing clouds.9 mph49%30.01 "HgN/A
2:50 PM64 °FPassing clouds.10 mph49%30.01 "HgN/A
2:20 PM64 °FPassing clouds.9 mph49%30.01 "HgN/A
1:50 PM63 °FScattered clouds.10 mph52%30.01 "HgN/A
1:20 PM61 °FScattered clouds.9 mph55%30.01 "HgN/A
12:50 PM61 °FScattered clouds.9 mph52%30.01 "HgN/A
12:20 PM61 °FScattered clouds.10 mph55%30.01 "HgN/A
11:50 AM61 °FScattered clouds.9 mph55%N/AN/A
11:20 AM59 °FScattered clouds.9 mph59%30.01 "HgN/A
10:50 AM59 °FScattered clouds.10 mph59%30.01 "HgN/A
10:20 AM59 °FScattered clouds.14 mph59%30.01 "HgN/A
9:50 AM57 °FScattered clouds.12 mph63%30.01 "HgN/A
9:20 AM57 °FSunny.10 mph67%30.01 "Hg10 mi
8:50 AM55 °FPassing clouds.10 mph72%30.01 "HgN/A
8:20 AM54 °FSunny.9 mph72%30.01 "Hg10 mi
Weather by CustomWeather, © 2014

See weather overviewHow to use our weather pages